Weather in Abancay

Peru     13°37′55″S   72°52′52″W
temp.,
°C
wind,
m/s
gust,
m/s
humid.,
%
clouds,
%
prec.,
mm/h
press.,
hPa
HPBL,
m
5 march, fri
fri501:00+8nnw1298100 1.6 101942
04:00+9n0096100 0.4 101880
07:00+9e1192100 0.8 1020135
10:00+13nne227382 0.9 1018745
13:00+16n336591 2.8 10131078
16:00+16nnw446431 0.5 10101064
19:00+9nnw239248 2.1 101538
22:00+9nnw2393100 0.5 101990
6 march, sat
sat601:00+9nw2293100 1.3 1019137
04:00+8ene1195100 1.8 101869
07:00+7sse1194100 4.9 1019114
10:00+12n127379 0.3 1019669
13:00+15n446963 1.9 10141014
16:00+15nnw3369100 0.9 1012945
19:00+9nnw339591 1.1 101659
22:00+8nw2296100 0.1 102065
7 march, sun
sun701:00+9n2292100 0.1 1019133
04:00+9n1291100 0.1 1018130
07:00+9ese119099 0.3 1021153
10:00+13ne227187 0.4 1019797
13:00+16nnw436463 2.5 10141070
16:00+16nnw43666 1.4 1012978
19:00+10nnw339337 3.6 101673
22:00+10nnw1295100 1.9 102096
8 march, mon
mon801:00+8se3496100 13.1 1020236
04:00+7se1196100 9.3 1019138
07:00+8sse1189100 10.6 1022141
10:00+12nne227186 0.1 1020717
13:00+16n326447 1.1 10151021
16:00+16nnw336514 0.9 10121046
19:00+9nnw239226 1.0 101534
22:00+8nnw1295100 0.1 101926
9 march, tue
tue901:00+9nw119298 0.4 101973
04:00+9nw1192100 0.4 101885
07:00+10nnw1287100 0.9 1020164
10:00+14n2272100 1.8 1018772
13:00+16nnw336795 5.2 10131034
16:00+15nnw446894 1.4 1011974
19:00+10nw349297 3.6 101699
22:00+9sse2295100 5.9 1020211